| time (UTC) | temp C | wind direction | speed KPH | gust KPH | rain 1hr cm | rain 24hr cm | rain mn cm | humidity % | barometer mb |
| 20260504220037 | 27 | 130 | 14.5 | 29.0 | 0.00 | 0.00 | 0.00 | 65 | 1013.9 |
| 20260504214538 | 27 | 142 | 8.0 | 20.9 | 0.00 | 0.00 | 0.00 | 64 | 1013.8 |
| 20260504213040 | 27 | 146 | 12.9 | 25.7 | 0.00 | 0.00 | 0.00 | 63 | 1013.8 |
| 20260504211535 | 28 | 129 | 11.3 | 29.0 | 0.00 | 0.00 | 0.00 | 61 | 1014.0 |
| 20260504210046 | 28 | 121 | 8.0 | 22.5 | 0.00 | 0.00 | 0.00 | 56 | 1013.9 |
| 20260504204537 | 29 | 101 | 11.3 | 24.1 | 0.00 | 0.00 | 0.00 | 57 | 1014.0 |
| 20260504203037 | 30 | 163 | 8.0 | 19.3 | 0.00 | 0.00 | 0.00 | 56 | 1013.9 |
| 20260504201534 | 30 | 156 | 12.9 | 27.4 | 0.00 | 0.00 | 0.00 | 55 | 1013.9 |
| 20260504200038 | 30 | 98 | 17.7 | 27.4 | 0.00 | 0.00 | 0.00 | 54 | 1014.2 |
| 20260504194542 | 30 | 108 | 12.9 | 29.0 | 0.00 | 0.00 | 0.00 | 54 | 1014.3 |
| 20260504193044 | 30 | 100 | 14.5 | 29.0 | 0.00 | 0.00 | 0.00 | 54 | 1014.4 |
| 20260504191604 | 30 | 97 | 12.9 | 25.7 | 0.00 | 0.00 | 0.00 | 54 | 1014.9 |
| 20260504190037 | 29 | 111 | 11.3 | 27.4 | 0.00 | 0.00 | 0.00 | 55 | 1015.1 |
| 20260504184543 | 30 | 127 | 11.3 | 30.6 | 0.00 | 0.00 | 0.00 | 55 | 1015.2 |
| 20260504183038 | 30 | 64 | 14.5 | 32.2 | 0.00 | 0.00 | 0.00 | 55 | 1015.5 |
| 20260504181538 | 29 | 64 | 19.3 | 29.0 | 0.00 | 0.00 | 0.00 | 56 | 1015.6 |
| 20260504180037 | 29 | 130 | 14.5 | 30.6 | 0.00 | 0.00 | 0.00 | 57 | 1015.9 |
| 20260504174538 | 28 | 57 | 12.9 | 22.5 | 0.00 | 0.00 | 0.00 | 58 | 1016.0 |
| 20260504173038 | 28 | 145 | 16.1 | 24.1 | 0.00 | 0.00 | 0.00 | 55 | 1016.2 |
| 20260504171540 | 28 | 110 | 12.9 | 27.4 | 0.00 | 0.00 | 0.00 | 56 | 1016.5 |
| 20260504081542 | 20 | 96 | 3.2 | 9.7 | 0.00 | 0.03 | 0.00 | 85 | 1015.5 |
| 20260504044537 | 21 | 107 | 4.8 | 12.9 | 0.00 | 0.03 | 0.00 | 83 | 1017.4 |
| 20260504043040 | 21 | 118 | 6.4 | 14.5 | 0.00 | 0.03 | 0.00 | 83 | 1017.3 |
| 20260504041533 | 21 | 101 | 6.4 | 14.5 | 0.00 | 0.03 | 0.00 | 83 | 1017.3 |
| 20260504040035 | 21 | 107 | 6.4 | 16.1 | 0.00 | 0.03 | 0.00 | 83 | 1017.2 |
| 20260504034543 | 21 | 105 | 8.0 | 14.5 | 0.00 | 0.03 | 0.03 | 83 | 1017.4 |
| 20260504033050 | 21 | 80 | 4.8 | 9.7 | 0.00 | 0.03 | 0.03 | 83 | 1017.5 |
| 20260504031538 | 21 | 84 | 3.2 | 11.3 | 0.00 | 0.03 | 0.03 | 83 | 1017.6 |
| 20260504030040 | 21 | 142 | 4.8 | 11.3 | 0.00 | 0.03 | 0.03 | 83 | 1017.6 |
| 20260504024544 | 21 | 133 | 3.2 | 9.7 | 0.00 | 0.28 | 0.03 | 83 | 1017.6 |
| 20260504023038 | 21 | 129 | 1.6 | 12.9 | 0.00 | 0.28 | 0.03 | 83 | 1017.8 |
| 20260504021537 | 21 | 153 | 3.2 | 8.0 | 0.00 | 0.28 | 0.03 | 83 | 1017.6 |
| 20260504020037 | 21 | 142 | 1.6 | 11.3 | 0.00 | 0.28 | 0.03 | 83 | 1017.5 |
| 20260504014539 | 21 | 161 | 3.2 | 16.1 | 0.00 | 0.36 | 0.03 | 83 | 1017.4 |
| 20260504013039 | 21 | 144 | 6.4 | 12.9 | 0.00 | 0.36 | 0.03 | 83 | 1017.2 |
| 20260504011534 | 21 | 74 | 3.2 | 9.7 | 0.00 | 0.36 | 0.03 | 83 | 1017.2 |
| 20260504010035 | 21 | 101 | 4.8 | 11.3 | 0.00 | 0.36 | 0.03 | 83 | 1017.1 |
| 20260504004539 | 21 | 108 | 1.6 | 12.9 | 0.00 | 0.41 | 0.03 | 83 | 1016.8 |
| 20260504003042 | 21 | 136 | 4.8 | 11.3 | 0.00 | 0.41 | 0.03 | 83 | 1016.8 |
| 20260504001537 | 21 | 99 | 1.6 | 11.3 | 0.00 | 0.41 | 0.03 | 83 | 1016.6 |
| 20260504000047 | 21 | 113 | 6.4 | 12.9 | 0.00 | 0.41 | 0.03 | 83 | 1016.3 |
| 20260503234535 | 21 | 96 | 4.8 | 12.9 | 0.00 | 0.61 | 0.03 | 83 | 1016.3 |
| 20260503233040 | 21 | 101 | 8.0 | 12.9 | 0.00 | 0.61 | 0.03 | 82 | 1016.3 |
| 20260503231538 | 21 | 117 | 8.0 | 16.1 | 0.00 | 0.61 | 0.03 | 82 | 1016.1 |
| 20260503230035 | 21 | 124 | 11.3 | 17.7 | 0.00 | 0.61 | 0.03 | 82 | 1016.2 |
| 20260503224537 | 22 | 91 | 9.7 | 19.3 | 0.00 | 1.14 | 0.03 | 82 | 1016.1 |
| 20260503223036 | 22 | 103 | 9.7 | 19.3 | 0.00 | 1.14 | 0.03 | 81 | 1016.0 |
| 20260503221539 | 22 | 94 | 9.7 | 22.5 | 0.00 | 1.14 | 0.03 | 81 | 1016.0 |